Showing default

LEMUR-2 EMARCHIA, 68492

Orbit data source: Space-Track

LEMUR-2 EMARCHIA, 68492 is a German payload satellite in SSO that was launched on Mon, 30 Mar 2026 UTC via an FALCON 9 launch vehicle from the Air Force Western Test Range (AFWTR). Payload-class satellites include a variety of spacecraft equipped with specific instruments for various scientific and technological missions. These include communications satellites like Starlink; space stations such as the ISS; scientific satellites like the Hubble; Earth observation satellites from companies like Planet Labs, Umbra, and HawkEye 360; GPS; miniature CubeSats for education and research; and military/defense satellites.

Loading next visibility...
Identifier
68492, 2026-067CE
Orbit
SSO
Country
Flag of DEDE / GER
Related business
None
Manufacturer
Unknown
Mission
Operational spacecraft
Bus & Motor
Unknown
Mass
Unknown
Launch date (UTC)
2026-03-30 (1 month ago)
Launch vehicle
FALCON 9
Launch site
Air Force Western Test Range (AFWTR)
Object type
Payload
Rocket body
Debris
Shape & HBR
Unknown shape, 1.1 m
Radar Cross Section
RCS unknown

Expand to show TLE details & history
Last TLE update: 14 hours ago

TLE from 14 hours ago
0 LEMUR-2 EMARCHIA
1 68492U 26067CE  26127.14716967  .00004692  00000-0  47674-3 0  9991
2 68492  97.7546  85.9951 0003547 162.2208 197.9135 14.91279480  5607
Epoch: 2026-05-07T03:31Z
TLE epoch observation values (Epoch: 2026-05-07T03:31:55.459Z)
Latitude
-0.00005°
Longitude
168.01654°
Altitude
599.34 km
Speed
7.559 km/s
True Right ascension
05h 43m 58s
True Declination
0° 00' 00"
Sunlit
Object was in daylight at epoch
Visualization orbit readout
Latitude
Unknown
Longitude
Unknown
Altitude
Unknown
Speed
Unknown
Apparent Right ascension
Unknown
Apparent Declination
Unknown
Sunlit
N/A
Visualization observer readout
Local Sidereal Time
01:58:18
Azimuth
Unknown
Elevation
Unknown
Doppler factor
Unknown
Orbital elements
Apogee altitude
593.436 km
Perigee altitude
588.492 km
Semi-major axis
6,969.101 km
Eccentricity
0.00035
Inclination
97.7546°
RAAN
85.9951°
Arg. of periapsis
162.2208°
True anomaly
197.901°
Mean anomaly
197.9135°
Eccentric anomaly
197.90725°
Mean motion
3.73059 °/min
Orbital period
96.5 mins
BSTAR
0.00047674
Loading maneuver chart data...
Computing Atmospheric mass density...
Loading historical data...
Loading historical data...
Loading historical data...
Loading historical data...
Loading historical data...
Loading historical data...
Loading historical data...

Documentation

Showing up to 5 results
|